Wind_Speed
15 16 16 16 16 15 15 15 15 14 15 15 15 16 17 18 19 20 20 22 23 23 22 23 22 21 20 20 19 18 17 17 16 15 15 14 14 14 13 13 13 12 11
16 16 16 16 16 16 15 15 14 14 14 14 15 16 17 18 20 21 21 22 24 24 24 24 24 23 22 21 21 20 19 18 17 16 16 15 15 15 14 13 13 12 11
16 16 16 16 16 15 15 14 13 13 13 13 14 16 17 18 19 21 22 22 23 24 24 24 25 24 23 22 22 21 21 20 19 18 17 17 17 16 15 14 13 13 12
16 16 16 16 16 15 14 13 12 12 12 12 13 15 16 18 19 21 22 22 23 24 25 25 26 25 25 24 23 23 22 21 20 20 19 18 18 17 17 15 14 14 13
16 16 16 15 15 14 13 12 12 11 11 11 12 14 15 17 18 20 21 22 23 24 25 25 27 26 25 25 25 24 23 23 22 21 21 20 19 19 18 17 15 14 14
16 16 16 15 15 14 13 12 11 11 11 11 12 13 14 17 17 19 20 22 23 24 25 26 26 27 26 26 25 25 24 23 24 23 22 22 20 20 19 18 17 16 15
16 16 16 16 15 14 12 11 10 10 10 10 11 12 13 16 17 18 20 21 23 24 26 26 27 26 27 27 26 25 26 24 24 25 23 23 22 21 21 20 19 17 16
16 16 16 15 14 13 12 11 10 9 9 9 10 11 13 15 16 18 19 20 22 23 25 26 26 27 28 28 26 26 26 26 25 25 25 24 23 22 22 21 20 18 18
16 17 16 15 14 13 12 10 9 9 9 8 9 10 12 14 15 17 18 19 21 23 25 26 27 27 27 28 27 27 27 27 28 26 27 26 25 24 23 22 21 20 19
16 17 16 16 15 13 12 11 10 8 8 8 8 9 10 12 15 17 17 18 20 22 24 26 27 27 27 27 28 28 28 27 28 27 27 27 27 26 25 24 23 22 21
16 17 17 16 15 13 12 11 9 8 7 7 8 8 9 11 13 15 17 18 19 21 23 25 26 27 27 28 28 28 28 28 27 27 26 27 27 26 26 25 24 23 22
17 17 17 16 14 13 12 11 9 8 7 6 7 8 8 10 12 14 16 17 18 19 21 23 25 26 26 28 29 28 28 27 27 27 27 27 26 26 26 26 25 25 24
16 16 16 15 14 13 12 11 9 8 7 6 7 7 8 10 12 13 15 16 17 18 20 22 24 25 26 28 28 28 28 28 28 28 28 28 28 27 27 27 27 26 26
16 16 16 15 14 13 12 11 10 8 7 7 7 7 8 9 11 12 14 15 16 17 19 21 23 24 25 26 28 28 28 29 29 29 29 29 28 27 27 27 27 27 27
16 16 16 15 14 13 12 11 10 9 8 8 7 8 8 10 11 12 13 14 16 17 19 20 22 23 25 26 27 28 28 29 29 29 29 29 28 28 29 28 28 28 28
17 17 16 15 15 14 13 12 11 10 9 8 8 8 9 10 11 12 12 13 14 16 17 19 21 22 23 24 25 26 27 29 30 30 30 29 29 29 28 28 28 28 29
18 17 17 16 16 15 14 13 12 10 9 9 8 8 8 9 10 11 12 13 13 15 16 18 19 21 23 23 24 25 26 28 28 29 29 30 29 29 29 28 29 29 29
19 18 18 17 16 16 15 14 13 11 10 9 8 8 8 8 10 10 11 13 13 14 16 17 18 20 22 23 24 24 25 27 28 29 30 31 30 30 30 30 29 29 29
20 20 19 19 18 17 16 15 14 13 12 10 10 9 9 9 10 10 12 13 14 14 16 18 18 19 21 23 24 24 25 26 27 29 30 31 31 31 32 32 31 31 30
22 22 21 20 19 18 17 16 15 14 13 12 12 11 11 11 11 11 12 13 14 14 16 17 18 19 20 21 23 24 25 26 27 28 29 30 31 31 32 32 33 32 31
24 23 23 22 22 21 19 18 17 16 15 14 14 13 13 13 12 12 13 14 14 15 16 17 17 19 19 20 21 23 24 24 25 27 28 30 31 31 31 32 32 32 33
26 26 25 24 23 23 22 21 20 18 17 17 16 15 15 14 14 14 14 14 14 15 17 18 19 20 21 21 21 21 22 23 24 26 27 28 30 31 31 32 32 31 31
29 28 27 26 25 24 24 23 22 21 20 19 18 18 17 17 16 15 15 15 15 16 17 18 19 19 20 21 21 21 22 22 24 25 26 27 28 29 30 31 31 32 32
32 31 30 29 28 27 26 25 25 25 23 22 21 20 19 19 18 18 17 17 17 16 16 17 18 20 20 20 21 21 21 22 22 23 24 26 28 29 30 31 31 32 33
34 34 33 32 31 29 29 28 28 27 26 25 24 22 22 21 21 20 19 19 18 18 18 17 18 18 19 20 20 20 21 21 22 23 24 25 27 29 30 31 31 32 33
37 37 36 35 34 32 31 30 30 29 28 27 26 25 23 23 22 22 21 20 20 19 19 19 18 18 18 19 19 20 20 21 22 23 24 25 26 28 29 30 31 31 32
Wind_Direction
317 316 313 311 308 303 298 294 287 282 275 266 256 248 242 234 232 230 224 220 219 219 218 214 211 210 211 209 208 206 203 202 200 198 195 192 191 187 184 182 179 177 176
321 319 316 313 311 306 301 295 288 281 274 266 255 246 241 234 231 228 225 221 220 219 218 215 212 211 212 211 210 207 204 204 203 203 201 199 195 192 190 190 189 188 188
325 323 319 317 315 310 304 298 289 281 272 264 256 246 241 235 230 226 224 222 220 218 217 215 214 213 213 213 210 208 205 205 205 205 205 201 198 196 197 197 197 198 200
327 326 323 320 319 314 307 302 292 282 273 266 257 246 240 235 230 225 222 222 221 219 218 217 216 215 214 213 211 209 207 208 207 206 205 204 201 201 201 202 204 205 207
332 329 326 323 322 317 311 305 296 285 274 265 255 248 240 235 231 226 223 221 220 219 219 218 218 217 216 213 212 212 210 210 209 208 207 206 205 205 205 207 208 210 213
336 334 330 327 325 320 313 306 299 287 276 267 257 249 240 234 231 227 225 223 222 221 220 219 217 217 216 214 213 214 214 214 212 210 210 209 210 210 211 212 213 214 216
338 336 332 329 326 323 318 311 301 291 279 269 257 249 239 233 230 227 226 225 223 222 221 220 217 217 216 216 215 216 215 215 214 211 212 212 212 213 215 216 217 218 218
339 337 335 333 331 327 322 316 305 294 282 271 260 250 241 234 228 227 227 225 224 223 221 219 217 217 216 217 217 217 217 216 217 215 215 217 216 217 218 218 219 221 222
339 339 337 336 334 330 326 319 309 299 284 272 262 254 244 237 228 227 227 226 224 222 220 219 218 217 218 218 218 219 220 221 219 218 217 218 218 219 220 221 222 223 225
339 340 339 337 335 332 328 323 313 305 287 273 263 257 247 237 228 227 226 226 225 222 220 219 218 218 219 218 220 220 221 222 221 220 219 219 220 221 222 223 224 226 228
338 339 339 338 336 334 332 327 318 307 293 278 264 257 248 237 229 226 225 224 224 223 221 220 219 219 220 220 220 220 221 223 224 222 221 222 222 223 223 224 226 227 227
335 337 339 338 337 337 336 332 323 309 295 284 268 257 246 236 229 228 226 224 225 224 221 220 222 221 221 221 221 223 223 224 224 226 226 225 225 225 225 225 228 229 228
333 335 337 339 339 338 336 334 327 313 298 286 275 260 246 237 230 230 227 227 227 227 224 223 224 221 221 221 222 224 225 226 226 227 227 228 230 230 229 230 230 230 231
329 332 334 336 336 336 335 333 329 316 301 288 278 263 249 242 236 233 228 229 229 229 227 225 223 222 224 224 224 225 225 226 227 228 229 231 232 232 232 232 233 232 232
324 327 328 330 331 331 330 329 326 319 303 292 280 267 255 248 242 238 231 228 229 230 228 226 224 223 225 226 226 226 226 227 229 229 230 232 232 234 234 234 235 235 236
321 322 323 323 324 324 324 324 321 317 314 303 287 276 261 253 245 237 232 231 232 230 230 227 225 225 224 224 225 227 227 228 228 230 231 232 234 236 238 238 238 239 239
316 318 318 318 318 318 317 318 319 313 310 306 293 280 267 255 247 238 234 234 235 234 233 231 227 228 226 225 226 228 228 228 229 230 232 234 236 237 239 240 241 241 243
310 311 312 312 312 311 310 310 310 308 303 298 291 281 269 259 250 241 238 237 238 237 236 234 233 231 230 228 229 230 231 232 232 233 233 234 237 238 239 240 242 243 245
306 306 306 306 306 305 304 303 301 300 298 292 284 276 270 262 254 248 245 242 240 239 238 237 236 234 233 232 232 233 235 237 236 236 236 237 238 240 241 241 244 245 247
302 302 302 301 300 298 297 297 294 292 291 286 282 276 270 263 258 256 253 249 245 243 241 239 238 236 235 235 236 236 238 241 240 239 239 239 241 242 242 243 244 246 248
297 298 298 297 296 294 291 290 288 285 284 282 278 274 268 264 260 258 256 254 250 246 243 241 241 238 239 239 240 239 242 244 243 241 240 240 241 241 242 243 244 247 249
293 293 292 292 291 290 287 283 281 280 277 276 276 272 266 264 262 259 258 255 253 250 247 244 244 243 242 242 243 245 246 245 245 244 243 243 242 243 244 244 246 247 249
290 289 288 287 286 285 283 280 276 275 273 272 272 269 265 262 259 257 257 255 254 253 252 250 248 248 247 246 247 248 246 247 246 245 245 245 244 245 245 246 247 248 250
287 286 286 284 282 280 278 276 274 271 270 268 267 265 263 260 258 257 256 254 254 253 253 252 251 250 251 251 251 251 249 248 247 247 247 246 245 246 247 248 249 250 252
283 282 281 281 279 277 274 273 271 269 268 265 263 262 261 259 257 257 256 254 254 253 252 251 251 251 251 251 251 250 251 250 250 249 250 250 249 248 248 250 251 252 254
281 279 278 278 277 275 271 269 268 267 265 263 261 260 259 258 257 256 256 255 254 253 251 251 250 251 251 252 252 252 252 253 253 252 251 252 252 252 251 251 253 254 255
Height
5839 5837 5834 5832 5830 5828 5826 5825 5824 5823 5822 5822 5823 5824 5825 5827 5828 5831 5833 5836 5839 5842 5845 5847 5850 5853 5856 5859 5861 5864 5866 5868 5871 5872 5874 5876 5878 5880 5882 5884 5885 5887 5889
5836 5834 5831 5829 5827 5824 5823 5821 5820 5819 5818 5818 5819 5820 5821 5823 5825 5827 5829 5832 5835 5838 5841 5844 5847 5850 5853 5856 5859 5861 5864 5866 5869 5871 5873 5875 5877 5879 5882 5884 5885 5887 5889
5834 5831 5828 5826 5823 5821 5819 5818 5816 5815 5815 5815 5815 5816 5817 5819 5821 5823 5825 5828 5831 5834 5838 5841 5844 5847 5850 5853 5856 5859 5862 5864 5867 5869 5872 5874 5876 5879 5881 5883 5885 5887 5888
5831 5828 5826 5823 5820 5818 5816 5814 5813 5812 5812 5811 5811 5812 5814 5815 5817 5820 5822 5825 5828 5831 5834 5837 5840 5844 5847 5850 5853 5856 5859 5862 5865 5867 5870 5873 5875 5878 5880 5882 5884 5886 5888
5829 5826 5823 5820 5818 5815 5813 5811 5810 5809 5808 5808 5808 5809 5810 5812 5814 5816 5819 5821 5824 5827 5830 5834 5837 5840 5843 5847 5850 5853 5856 5859 5862 5865 5868 5871 5874 5876 5879 5881 5883 5885 5887
5827 5824 5821 5818 5815 5813 5811 5809 5807 5806 5805 5805 5805 5805 5806 5808 5810 5813 5815 5818 5820 5823 5826 5830 5833 5836 5840 5844 5847 5850 5853 5856 5859 5863 5865 5868 5871 5874 5877 5879 5882 5884 5885
5825 5822 5819 5816 5813 5810 5808 5806 5804 5803 5802 5802 5802 5802 5803 5805 5807 5809 5811 5814 5817 5819 5822 5826 5829 5832 5836 5840 5843 5846 5850 5853 5856 5859 5863 5866 5869 5872 5875 5877 5880 5882 5883
5824 5821 5817 5814 5811 5808 5806 5804 5802 5801 5800 5799 5799 5800 5801 5802 5804 5806 5808 5810 5813 5815 5818 5822 5825 5829 5832 5836 5839 5843 5846 5850 5853 5856 5859 5862 5866 5869 5872 5874 5877 5879 5881
5822 5819 5816 5812 5809 5807 5804 5802 5800 5799 5798 5797 5797 5797 5798 5799 5801 5803 5805 5807 5809 5812 5815 5818 5822 5825 5828 5832 5836 5839 5842 5846 5849 5852 5855 5859 5862 5865 5868 5871 5874 5876 5878
5821 5817 5814 5811 5808 5805 5802 5800 5798 5797 5796 5795 5795 5795 5795 5796 5798 5800 5802 5804 5806 5808 5811 5814 5818 5821 5824 5828 5831 5835 5838 5842 5845 5848 5851 5855 5858 5861 5864 5867 5870 5873 5875
5819 5816 5813 5809 5806 5803 5801 5799 5797 5795 5794 5793 5793 5793 5793 5794 5795 5797 5799 5801 5803 5805 5808 5811 5814 5817 5820 5824 5827 5831 5834 5838 5841 5844 5847 5850 5854 5857 5860 5863 5866 5868 5871
5818 5815 5811 5808 5805 5802 5800 5797 5795 5794 5793 5792 5792 5791 5792 5792 5793 5794 5796 5798 5800 5802 5804 5807 5810 5813 5816 5819 5823 5826 5830 5834 5837 5840 5843 5846 5849 5852 5855 5858 5861 5864 5866
5816 5813 5810 5807 5804 5801 5799 5797 5795 5793 5792 5791 5790 5790 5790 5790 5791 5792 5793 5795 5797 5799 5801 5804 5806 5809 5812 5815 5819 5822 5826 5829 5832 5835 5838 5842 5845 5848 5851 5853 5856 5859 5861
5815 5812 5809 5806 5803 5800 5798 5796 5794 5792 5791 5790 5789 5788 5788 5788 5789 5790 5791 5792 5794 5796 5798 5800 5803 5805 5808 5811 5814 5817 5821 5824 5827 5831 5834 5837 5840 5843 5846 5848 5851 5854 5856
5813 5810 5807 5805 5802 5799 5797 5795 5793 5791 5790 5788 5788 5787 5787 5786 5787 5788 5788 5790 5791 5793 5795 5796 5799 5801 5804 5807 5810 5813 5816 5819 5822 5826 5829 5832 5835 5838 5841 5843 5846 5848 5851
5811 5808 5806 5803 5800 5798 5796 5793 5792 5790 5788 5787 5786 5785 5784 5784 5784 5785 5786 5787 5788 5789 5791 5792 5795 5797 5800 5802 5805 5808 5811 5814 5817 5820 5824 5827 5830 5832 5835 5838 5840 5843 5845
5809 5806 5804 5801 5799 5796 5794 5792 5790 5788 5787 5785 5784 5783 5782 5782 5782 5783 5783 5784 5785 5786 5787 5789 5790 5793 5795 5798 5800 5803 5806 5809 5812 5815 5818 5821 5824 5827 5829 5832 5834 5836 5839
5806 5803 5801 5799 5796 5794 5792 5790 5788 5786 5785 5783 5782 5781 5781 5780 5780 5780 5781 5781 5782 5783 5784 5785 5787 5789 5791 5793 5796 5798 5801 5803 5806 5809 5812 5815 5818 5820 5823 5825 5828 5830 5832
5802 5800 5798 5796 5793 5791 5789 5787 5786 5784 5782 5781 5780 5779 5779 5778 5778 5778 5778 5779 5779 5780 5781 5782 5783 5785 5787 5789 5791 5793 5796 5798 5800 5803 5806 5808 5811 5814 5816 5819 5821 5823 5826
5798 5796 5794 5792 5790 5788 5786 5784 5782 5781 5780 5779 5778 5777 5776 5776 5775 5775 5775 5775 5776 5776 5777 5778 5779 5780 5782 5784 5786 5788 5790 5792 5794 5796 5799 5801 5804 5807 5809 5812 5814 5816 5818
5792 5791 5789 5787 5785 5783 5782 5780 5779 5777 5776 5775 5774 5773 5773 5773 5772 5772 5772 5772 5772 5772 5773 5774 5775 5776 5778 5779 5781 5783 5785 5786 5788 5790 5792 5794 5797 5799 5802 5804 5806 5809 5811
5786 5784 5783 5781 5780 5778 5777 5775 5774 5773 5772 5771 5770 5770 5769 5769 5769 5768 5768 5768 5769 5769 5769 5770 5771 5772 5773 5775 5776 5777 5779 5780 5782 5784 5785 5787 5789 5792 5794 5797 5799 5801 5803
5779 5777 5776 5774 5773 5772 5770 5769 5768 5767 5767 5766 5765 5765 5765 5765 5764 5764 5764 5764 5764 5764 5765 5765 5766 5767 5768 5769 5770 5771 5772 5774 5775 5777 5778 5780 5782 5784 5786 5788 5791 5793 5795
5770 5769 5767 5766 5765 5764 5763 5762 5761 5760 5760 5760 5760 5759 5759 5759 5759 5759 5759 5759 5760 5760 5760 5761 5761 5762 5763 5763 5764 5765 5766 5767 5769 5770 5771 5773 5775 5777 5779 5781 5783 5785 5787
5760 5759 5757 5756 5756 5755 5754 5753 5753 5752 5752 5752 5752 5753 5753 5753 5754 5754 5754 5754 5754 5755 5755 5756 5756 5757 5757 5757 5758 5759 5760 5761 5762 5763 5764 5766 5767 5769 5771 5772 5774 5776 5778
5749 5748 5747 5746 5745 5745 5744 5744 5743 5743 5744 5744 5745 5745 5746 5746 5747 5747 5748 5748 5748 5749 5749 5750 5750 5751 5751 5752 5752 5753 5754 5754 5755 5756 5757 5758 5759 5761 5762 5764 5766 5767 5769